Tampa, FL

5:32 PM EDT on August 24, 2016 (GMT -0400)
MacDill Air Force Base

Weather History for KMCF - March, 2014

Change the Weather History Date:

Monday, March 3, 2014

  Actual Average Record
Temperature  
Mean Temperature 66 °F -  
Max Temperature 77 °F 73 °F 87 °F (2002)
Min Temperature 55 °F 55 °F 40 °F (2009)
Cooling Degree Days 1    
Growing Degree Days 16 (Base 50)    
Moisture  
Dew Point 62 °F    
Average Humidity 94    
Maximum Humidity 100    
Minimum Humidity 75    
Precipitation  
Precipitation 0.00 in - - ()
Sea Level Pressure  
Sea Level Pressure 30.05 in    
Wind  
Wind Speed 5 mph (SSE)    
Max Wind Speed 17 mph    
Max Gust Speed -    
Visibility 7 miles    
Events      
Averages and records for this station are not official NWS values.
T = Trace of Precipitation, MM = Missing Value Source: NWS Daily Summary

Daily Weather History Graph

Daily Weather History Graph

Search for Another Location

Airport or City:

Trip Planner

Search our weather history database for the weather conditions in past years. The results will help you decide how hot, cold, wet, or windy it might be!

Date:

Astronomy

Mar. 03, 2014 Rise Set
Actual Time 6:52 AM EST 6:31 PM EST
Civil Twilight 6:29 AM EST 6:55 PM EST
Nautical Twilight 6:01 AM EST 7:22 PM EST
Astronomical Twilight 5:34 AM EST 7:49 PM EST
Moon 8:16 AM EST (3/3) 9:14 PM EST (3/3)
Length of Visible Light 12h 26m
Length of Day
11h 39m
Waxing Crescent, 8% of the Moon is Illuminated
Mar 3
Waxing Crescent
Mar 8
First Quarter
Mar 16
Full
Mar 23
Last Quarter
Mar 30
New

Hourly Weather History & Observations

Time (EST) Temp. Dew Point Humidity Pressure Visibility Wind Dir Wind Speed Gust Speed Precip Events Conditions
12:58 AM 55.8 °F 53.4 °F 92% 30.08 in 10.0 mi East 4.6 mph - N/A   Clear
1:58 AM 56.5 °F 55.8 °F 97% 30.06 in 10.0 mi ESE 5.8 mph - N/A   Clear
2:58 AM 59.5 °F 59.5 °F 100% 30.04 in 10.0 mi ESE 3.5 mph - N/A   Clear
3:58 AM 57.2 °F 56.8 °F 99% 30.03 in 10.0 mi ESE 3.5 mph - N/A   Scattered Clouds
4:28 AM 57.2 °F 57.2 °F 100% 30.02 in 10.0 mi SE 5.8 mph - N/A   Mostly Cloudy
4:43 AM 59.0 °F 59.0 °F 100% 30.03 in 10.0 mi SE 1.2 mph - N/A   Scattered Clouds
4:58 AM 57.6 °F 57.6 °F 100% 30.04 in 10.0 mi ENE 2.3 mph - N/A   Partly Cloudy
5:43 AM 55.4 °F 55.4 °F 100% 30.05 in 2.0 mi ESE 2.3 mph - N/A   Clear
5:48 AM 57.2 °F 55.4 °F 94% 30.05 in 1.2 mi Calm Calm - N/A   Clear
5:53 AM 57.2 °F 55.4 °F 94% 30.05 in 1.0 mi ESE 1.2 mph - N/A   Clear
5:58 AM 57.2 °F 55.4 °F 94% 30.06 in 1.2 mi ESE 2.3 mph - N/A   Clear
6:03 AM 57.2 °F 57.2 °F 100% 30.05 in 8.0 mi SE 2.3 mph - N/A   Clear
6:13 AM 57.2 °F 57.2 °F 100% 30.05 in 2.5 mi SE 2.3 mph - N/A   Clear
6:18 AM 57.2 °F 55.4 °F 94% 30.05 in 1.8 mi SE 2.3 mph - N/A   Clear
6:23 AM 57.2 °F 55.4 °F 94% 30.05 in 1.8 mi SE 2.3 mph - N/A   Clear
6:28 AM 57.2 °F 57.2 °F 100% 30.05 in 1.2 mi ESE 2.3 mph - N/A   Clear
6:33 AM 57.2 °F 57.2 °F 100% 30.05 in 1.0 mi ESE 2.3 mph - N/A   Clear
6:38 AM 57.2 °F 57.2 °F 100% 30.05 in 1.5 mi ESE 2.3 mph - N/A   Clear
6:43 AM 57.2 °F 57.2 °F 100% 30.05 in 2.5 mi ESE 2.3 mph - N/A   Clear
6:53 AM 57.2 °F 57.2 °F 100% 30.05 in 3.0 mi SE 3.5 mph - N/A   Clear
6:58 AM 56.8 °F 56.7 °F 99% 30.06 in 7.0 mi SE 3.5 mph - N/A   Clear
7:58 AM 64.0 °F 64.0 °F 100% 30.07 in 10.0 mi WSW 2.3 mph - N/A   Clear
8:58 AM 68.9 °F 66.7 °F 93% 30.10 in 10.0 mi SSW 8.1 mph - N/A   Clear
9:58 AM 71.4 °F 65.5 °F 81% 30.11 in 10.0 mi SSW 8.1 mph - N/A   Clear
10:58 AM 74.5 °F 67.3 °F 78% 30.10 in 10.0 mi SSW 11.5 mph - N/A   Clear
11:58 AM 76.3 °F 68.0 °F 75% 30.09 in 10.0 mi SSW 13.8 mph - N/A   Clear
12:58 PM 77.4 °F 69.1 °F 76% 30.07 in 10.0 mi SSW 16.1 mph - N/A   Clear
1:58 PM 77.0 °F 68.4 °F 75% 30.05 in 10.0 mi SSW 16.1 mph - N/A   Clear
2:58 PM 76.6 °F 68.7 °F 76% 30.03 in 10.0 mi SSW 17.3 mph - N/A   Clear
3:58 PM 76.3 °F 68.2 °F 76% 30.02 in 10.0 mi SSW 16.1 mph - N/A   Clear
4:58 PM 73.9 °F 68.5 °F 83% 30.03 in 10.0 mi SSW 15.0 mph - N/A   Overcast
5:58 PM 72.3 °F 68.4 °F 87% 30.03 in 10.0 mi SSW 10.4 mph - N/A   Clear
6:58 PM 68.7 °F 67.8 °F 97% 30.04 in 10.0 mi SW 6.9 mph - N/A   Partly Cloudy
7:58 PM 67.6 °F 67.5 °F 99% 30.04 in 10.0 mi SSW 8.1 mph - N/A   Clear
8:58 PM 67.6 °F 67.6 °F 100% 30.05 in 10.0 mi SW 8.1 mph - N/A   Partly Cloudy
9:58 PM 67.5 °F 67.5 °F 100% 30.06 in 10.0 mi SW 5.8 mph - N/A   Scattered Clouds
10:08 PM 68.0 °F 68.0 °F 100% 30.05 in 10.0 mi SW 5.8 mph - N/A   Mostly Cloudy
10:13 PM 68.0 °F 68.0 °F 100% 30.05 in 10.0 mi SW 6.9 mph - N/A   Scattered Clouds
10:58 PM 66.9 °F 66.9 °F 100% 30.06 in 10.0 mi SSW 4.6 mph - N/A   Clear
11:53 PM 66.2 °F 66.2 °F 100% 30.04 in 5.0 mi SSW 2.3 mph - N/A   Mostly Cloudy
11:58 PM 67.1 °F 67.1 °F 100% 30.05 in 6.0 mi SSW 4.6 mph - N/A   Mostly Cloudy